period_start,C,m1,H,J0,J1,J2,J3,J4,J5,JA,JB,JC,JD,JJ,JK,JN,#
2016-02-21 00:00:41,0.00,1.67,0.00,19.51,23.45,27.33,15.08,47.98,1045.43,2046.99,2882.00,2715.00,3076.00,600.22,620.42,17.98,0000 0000 0000 0000 000000
2016-02-21 00:05:42,0.02,1.67,0.00,19.49,23.41,27.28,15.19,48.97,1045.43,2046.99,2881.51,2714.97,3075.86,600.59,620.88,18.03,0000 0000 0000 0000 000000
2016-02-21 00:10:43,0.04,1.67,0.00,19.47,23.38,27.23,15.15,48.86,1045.43,2047.00,2881.01,2714.39,3075.19,599.80,620.11,18.08,0000 0000 0000 0000 000000
2016-02-21 00:15:44,0.02,1.67,0.00,19.47,23.36,27.19,15.13,48.77,1045.42,2047.01,2880.44,2714.04,3075.02,599.87,620.18,18.13,0000 0000 0000 0000 000000
2016-02-21 00:20:46,0.01,1.68,0.00,19.46,23.34,27.17,15.03,48.90,1045.38,2047.10,2880.01,2714.00,3075.00,599.36,619.67,18.18,0000 0000 0000 0000 000000
2016-02-21 00:25:47,0.02,1.68,0.00,19.44,23.31,27.15,15.13,48.83,1045.37,2047.24,2879.92,2713.97,3074.79,599.84,620.18,18.23,0000 0000 0000 0000 000000
2016-02-21 00:30:48,0.07,1.68,0.00,19.43,23.30,27.13,15.09,48.67,1045.35,2047.49,2879.23,2713.50,3074.11,599.61,620.01,18.28,0000 0000 0000 0000 000000
2016-02-21 00:35:49,0.04,1.68,0.00,19.40,23.28,27.14,15.12,48.73,1045.27,2047.77,2878.99,2713.02,3073.98,599.64,620.05,18.33,0000 0000 0000 0000 000000
2016-02-21 00:40:51,0.02,1.68,0.00,19.39,23.27,27.16,15.15,48.42,1045.19,2047.86,2878.88,2712.99,3073.56,599.94,620.38,18.39,0000 0000 0000 0000 000000
2016-02-21 00:45:52,0.03,1.69,0.00,19.38,23.25,27.11,15.20,48.98,1045.24,2047.92,2878.10,2712.85,3073.02,600.28,620.65,18.44,0000 0000 0000 0000 000000
2016-02-21 00:50:53,0.02,1.69,0.00,19.38,23.23,27.13,15.19,48.76,1045.30,2047.97,2877.90,2712.19,3072.99,600.04,620.48,18.49,0000 0000 0000 0000 000000
2016-02-21 00:55:55,0.03,1.69,0.00,19.39,23.22,27.11,15.26,49.28,1045.34,2047.98,2877.07,2712.00,3072.55,600.59,620.99,18.54,0000 0000 0000 0000 000000
2016-02-21 01:00:56,0.03,1.69,0.00,19.39,23.20,27.10,15.18,49.22,1045.37,2047.99,2876.47,2711.77,3072.08,600.06,620.57,18.59,0000 0000 0000 0000 000000
2016-02-21 01:05:57,0.03,1.69,0.00,19.41,23.19,27.04,15.23,49.22,1045.38,2047.99,2875.81,2711.07,3071.89,599.99,620.27,18.64,0000 0000 0000 0000 000000
2016-02-21 01:10:59,0.04,1.69,0.00,19.39,23.19,27.01,15.09,49.37,1045.41,2048.00,2874.97,2710.78,3071.10,600.10,620.67,18.69,0000 0000 0000 0000 000000
2016-02-21 01:16:00,0.04,1.70,0.00,19.39,23.18,27.03,15.20,49.46,1045.42,2048.00,2874.11,2710.05,3070.95,600.18,620.64,18.74,0000 0000 0000 0000 000000
2016-02-21 01:21:01,0.05,1.70,0.00,19.39,23.19,27.02,15.10,49.46,1045.41,2048.01,2873.34,2709.59,3070.12,599.90,620.30,18.79,0000 0000 0000 0000 000000
2016-02-21 01:26:03,0.02,1.70,0.00,19.41,23.19,27.02,15.16,49.49,1045.35,2048.01,2872.87,2709.02,3069.62,600.01,620.46,18.84,0000 0000 0000 0000 000000
2016-02-21 01:31:04,0.04,1.70,0.00,19.43,23.20,27.07,15.18,49.28,1045.21,2048.00,2872.07,2708.58,3068.99,600.19,620.64,18.89,0000 0000 0000 0000 000000
2016-02-21 01:36:05,0.04,1.70,0.00,19.43,23.21,27.06,15.06,49.08,1045.13,2048.02,2871.55,2708.02,3068.23,599.90,620.13,18.94,0000 0000 0000 0000 000000
2016-02-21 01:41:07,0.03,1.71,0.00,19.42,23.22,27.06,15.19,49.53,1045.29,2048.00,2870.68,2707.67,3067.99,600.10,620.45,18.99,0000 0000 0000 0000 000000
2016-02-21 01:46:08,0.03,1.71,0.00,19.42,23.22,27.09,15.13,49.40,1045.36,2048.00,2869.84,2707.03,3067.60,600.13,620.62,19.04,0000 0000 0000 0000 000000
2016-02-21 01:51:10,0.02,1.71,0.00,19.42,23.22,27.07,15.21,49.55,1045.38,2048.00,2869.08,2706.98,3067.04,600.09,620.51,19.09,0000 0000 0000 0000 000000
2016-02-21 01:56:12,0.03,1.71,0.00,19.41,23.22,27.11,15.15,49.63,1045.38,2048.01,2868.85,2706.39,3066.95,599.89,620.29,19.14,0000 0000 0000 0000 000000
2016-02-21 02:01:13,0.03,1.71,0.00,19.40,23.24,27.07,15.14,49.64,1045.32,2048.01,2868.39,2706.01,3066.19,599.95,620.33,19.19,0000 0000 0000 0000 000000
2016-02-21 02:06:14,0.01,1.71,0.00,19.42,23.24,27.09,15.20,49.61,1045.23,2048.00,2868.00,2705.88,3065.93,600.27,620.57,19.24,0000 0000 0000 0000 000000
2016-02-21 02:11:15,0.05,1.72,0.00,19.42,23.25,27.08,15.16,49.57,1045.12,2047.99,2867.36,2705.16,3065.14,600.17,620.39,19.29,0000 0000 0000 0000 000000
2016-02-21 02:16:17,0.00,1.72,0.00,19.43,23.27,27.13,15.13,49.60,1045.14,2047.98,2867.00,2704.99,3064.98,600.12,620.35,19.34,0000 0000 0000 0000 000000
2016-02-21 02:21:18,0.02,1.72,0.00,19.45,23.27,27.11,15.11,49.55,1045.10,2047.99,2866.61,2704.91,3064.62,600.09,620.26,19.39,0000 0000 0000 0000 000000
2016-02-21 02:26:19,0.03,1.72,0.00,19.45,23.28,27.13,15.13,49.27,1045.02,2047.99,2866.07,2704.26,3064.03,599.90,619.99,19.44,0000 0000 0000 0000 000000
2016-02-21 02:31:21,0.00,1.72,0.00,19.47,23.29,27.15,15.11,49.21,1044.97,2047.99,2866.00,2704.01,3063.96,599.76,619.81,19.49,0000 0000 0000 0000 000000
2016-02-21 02:36:22,0.02,1.72,0.00,19.49,23.29,27.12,15.16,49.06,1044.95,2047.97,2865.58,2703.98,3063.40,599.86,619.95,19.54,0000 0000 0000 0000 000000
2016-02-21 02:41:23,0.03,1.72,0.00,19.49,23.29,27.12,15.06,49.11,1044.94,2047.92,2864.99,2703.47,3063.04,599.82,619.80,19.59,0000 0000 0000 0000 000000
2016-02-21 02:46:24,0.02,1.72,0.00,19.50,23.30,27.12,15.22,49.40,1044.94,2047.93,2864.34,2703.02,3062.99,600.29,620.27,19.64,0000 0000 0000 0000 000000
2016-02-21 02:51:25,0.01,1.73,0.00,19.49,23.30,27.19,15.13,49.47,1044.94,2047.94,2864.01,2702.99,3062.72,600.26,620.19,19.69,0000 0000 0000 0000 000000
2016-02-21 02:56:27,0.02,1.73,0.00,19.51,23.30,27.15,15.12,49.42,1044.94,2047.91,2863.80,2702.80,3062.08,600.11,620.07,19.74,0000 0000 0000 0000 000000
2016-02-21 03:01:28,0.03,1.73,0.00,19.54,23.31,27.16,15.12,49.42,1044.94,2047.96,2863.17,2702.18,3061.98,600.11,620.04,19.79,0000 0000 0000 0000 000000
2016-02-21 03:06:30,0.01,1.73,0.00,19.55,23.32,27.25,15.10,49.19,1044.94,2047.93,2863.03,2702.02,3061.51,599.96,619.76,19.84,0000 0000 0000 0000 000000
2016-02-21 03:11:31,-0.01,1.73,0.00,19.58,23.32,27.23,15.08,49.42,1044.94,2047.77,2862.77,2701.99,3061.02,599.87,619.64,19.89,0000 0000 0000 0000 000000
2016-02-21 03:16:32,0.02,1.73,0.00,19.60,23.33,27.20,15.19,49.56,1044.94,2047.59,2862.06,2701.58,3060.97,599.91,619.72,19.94,0000 0000 0000 0000 000000
2016-02-21 03:21:34,0.01,1.73,0.00,19.62,23.34,27.16,15.08,49.45,1044.94,2047.46,2861.80,2701.05,3060.70,599.79,619.51,19.99,0000 0000 0000 0000 000000
2016-02-21 03:26:35,0.02,1.73,0.00,19.62,23.34,27.17,15.15,49.52,1044.94,2047.44,2861.15,2701.00,3060.04,600.41,620.08,20.04,0000 0000 0000 0000 000000
2016-02-21 03:31:37,0.01,1.73,0.00,19.62,23.34,27.21,15.21,49.48,1044.94,2047.45,2860.99,2700.88,3059.98,599.95,619.70,20.09,0000 0000 0000 0000 000000
2016-02-21 03:36:38,0.03,1.73,0.00,19.63,23.35,27.24,15.14,49.39,1044.94,2047.29,2860.42,2700.18,3059.81,599.90,619.59,20.14,0000 0000 0000 0000 000000
2016-02-21 03:41:40,0.01,1.73,0.00,19.64,23.37,27.24,15.12,49.23,1044.94,2047.24,2860.01,2700.01,3059.07,599.80,619.41,20.19,0000 0000 0000 0000 000000
2016-02-21 03:46:41,0.01,1.73,0.00,19.65,23.37,27.21,15.10,49.27,1044.94,2047.16,2859.46,2699.91,3058.99,600.29,619.91,20.24,0000 0000 0000 0000 000000
2016-02-21 03:51:42,0.03,1.74,0.00,19.67,23.37,27.21,15.13,49.44,1044.94,2047.13,2858.98,2699.19,3058.74,599.84,619.38,20.29,0000 0000 0000 0000 000000
2016-02-21 03:56:43,0.02,1.74,0.00,19.67,23.37,27.27,15.18,49.40,1044.94,2047.13,2858.66,2699.01,3058.07,599.98,619.66,20.34,0000 0000 0000 0000 000000
2016-02-21 04:01:45,0.01,1.74,0.00,19.69,23.37,27.28,15.16,49.49,1044.94,2047.09,2858.02,2698.97,3057.99,599.94,619.57,20.39,0000 0000 0000 0000 000000
2016-02-21 04:06:46,0.04,1.74,0.00,19.70,23.37,27.23,15.16,49.60,1044.94,2047.11,2857.49,2698.48,3057.86,600.24,619.82,20.44,0000 0000 0000 0000 000000
2016-02-21 04:11:47,0.03,1.74,0.00,19.73,23.39,27.24,15.09,49.52,1044.90,2047.16,2857.01,2698.02,3057.13,599.92,619.32,20.49,0000 0000 0000 0000 000000
2016-02-21 04:16:48,-0.01,1.74,0.00,19.73,23.40,27.24,15.12,49.67,1044.91,2047.08,2856.86,2697.98,3057.00,600.14,619.64,20.54,0000 0000 0000 0000 000000
2016-02-21 04:21:49,0.03,1.74,0.00,19.76,23.42,27.25,15.14,49.69,1044.93,2047.05,2856.39,2697.74,3056.71,599.97,619.37,20.59,0000 0000 0000 0000 000000
2016-02-21 04:26:50,0.03,1.74,0.00,19.79,23.44,27.30,15.04,49.58,1044.93,2047.04,2856.02,2697.10,3056.04,599.60,618.89,20.64,0000 0000 0000 0000 000000
2016-02-21 04:31:52,0.00,1.74,0.00,19.79,23.47,27.29,15.11,49.66,1044.93,2047.00,2855.97,2697.00,3055.98,599.70,619.12,20.69,0000 0000 0000 0000 000000
2016-02-21 04:36:53,0.03,1.75,0.00,19.80,23.50,27.35,15.09,49.46,1044.94,2047.00,2855.29,2696.84,3055.53,600.05,619.51,20.74,0000 0000 0000 0000 000000
2016-02-21 04:41:54,0.03,1.75,0.00,19.81,23.52,27.39,15.11,49.64,1044.94,2047.00,2854.94,2696.08,3055.04,600.23,619.45,20.79,0000 0000 0000 0000 000000
2016-02-21 04:46:55,0.01,1.75,0.00,19.83,23.55,27.40,15.10,49.74,1044.94,2047.00,2854.17,2695.99,3054.96,600.09,619.27,20.84,0000 0000 0000 0000 000000
2016-02-21 04:51:57,0.04,1.75,0.00,19.84,23.58,27.43,15.10,49.83,1044.94,2047.00,2853.89,2695.59,3054.25,599.81,619.05,20.89,0000 0000 0000 0000 000000
2016-02-21 04:56:58,0.02,1.75,0.00,19.83,23.61,27.49,15.10,49.87,1044.94,2047.00,2853.10,2695.01,3053.98,599.82,619.04,20.94,0000 0000 0000 0000 000000
2016-02-21 05:02:00,0.02,1.75,0.00,19.85,23.64,27.48,15.21,50.02,1044.94,2047.00,2852.78,2694.87,3053.32,600.40,619.70,20.99,0000 0000 0000 0000 000000
2016-02-21 05:07:01,0.04,1.76,0.00,19.88,23.67,27.56,15.18,49.98,1044.94,2047.00,2852.04,2694.10,3053.00,599.96,619.11,21.04,0000 0000 0000 0000 000000
2016-02-21 05:12:02,0.02,1.76,0.00,19.87,23.70,27.56,15.13,50.00,1044.93,2046.99,2851.71,2693.98,3052.66,599.89,619.09,21.09,0000 0000 0000 0000 000000
2016-02-21 05:17:04,0.03,1.76,0.00,19.89,23.73,27.65,15.12,50.01,1044.93,2046.98,2851.05,2693.60,3052.05,600.05,619.17,21.14,0000 0000 0000 0000 000000
2016-02-21 05:22:05,0.01,1.76,0.00,19.92,23.76,27.60,15.07,49.88,1044.93,2046.95,2850.91,2693.02,3051.88,600.00,619.08,21.19,0000 0000 0000 0000 000000
2016-02-21 05:27:06,0.02,1.76,0.00,19.90,23.78,27.60,15.23,50.06,1044.93,2046.89,2850.14,2692.97,3051.11,600.03,619.20,21.24,0000 0000 0000 0000 000000
2016-02-21 05:32:07,-0.01,1.76,0.00,19.92,23.81,27.62,15.15,49.98,1044.94,2046.47,2849.99,2692.26,3050.67,600.18,619.21,21.29,0000 0000 0000 0000 000000
2016-02-21 05:37:09,-0.01,1.76,0.00,19.93,23.83,27.63,15.08,49.68,1044.93,2046.06,2849.95,2692.00,3049.93,599.93,619.06,21.34,0000 0000 0000 0000 000000
2016-02-21 05:42:10,0.04,1.76,0.00,19.94,23.85,27.67,15.06,49.38,1044.94,2046.00,2849.37,2691.65,3049.13,600.07,619.17,21.39,0000 0000 0000 0000 000000
2016-02-21 05:47:11,0.01,1.76,0.00,19.95,23.87,27.70,15.10,49.27,1044.87,2046.00,2848.96,2691.04,3048.95,600.07,619.11,21.44,0000 0000 0000 0000 000000
2016-02-21 05:52:12,0.03,1.76,0.00,19.94,23.88,27.68,15.16,49.23,1044.75,2046.00,2848.14,2690.94,3048.24,599.87,618.68,21.49,0000 0000 0000 0000 000000
2016-02-21 05:57:14,0.05,1.77,0.00,19.95,23.89,27.69,15.21,49.46,1044.63,2046.00,2847.26,2690.12,3047.96,600.12,619.06,21.54,0000 0000 0000 0000 000000
2016-02-21 06:02:15,0.02,1.77,0.00,19.95,23.89,27.69,15.01,49.11,1044.74,2045.98,2846.67,2689.97,3047.32,599.49,618.33,21.59,0000 0000 0000 0000 000000
2016-02-21 06:07:16,0.03,1.77,0.00,19.94,23.87,27.63,15.13,49.26,1044.84,2045.98,2846.02,2689.48,3047.02,599.93,618.88,21.65,0000 0000 0000 0000 000000
2016-02-21 06:12:17,0.02,1.77,0.00,19.94,23.87,27.69,15.05,48.89,1044.93,2045.98,2845.75,2689.07,3046.98,599.64,618.62,21.70,0000 0000 0000 0000 000000
2016-02-21 06:17:19,0.02,1.77,0.00,19.94,23.86,27.61,15.11,49.09,1044.93,2045.97,2845.03,2689.00,3046.67,599.91,618.86,21.75,0000 0000 0000 0000 000000
2016-02-21 06:22:20,0.01,1.77,0.00,19.95,23.85,27.65,15.08,49.02,1044.94,2045.97,2844.99,2688.98,3046.04,600.02,619.11,21.80,0000 0000 0000 0000 000000
2016-02-21 06:27:21,0.01,1.77,0.00,19.95,23.84,27.59,15.03,48.97,1044.91,2045.99,2844.85,2688.92,3046.00,599.79,618.76,21.85,0000 0000 0000 0000 000000
2016-02-21 06:32:22,0.03,1.77,0.00,19.94,23.82,27.66,15.15,49.13,1044.92,2045.99,2844.09,2688.52,3046.00,599.87,618.89,21.90,0000 0000 0000 0000 000000
2016-02-21 06:37:23,0.01,1.78,0.00,19.94,23.81,27.64,15.14,49.13,1044.94,2045.99,2844.00,2688.08,3045.94,599.86,618.92,21.95,0000 0000 0000 0000 000000
2016-02-21 06:42:25,0.01,1.78,0.00,19.94,23.80,27.67,15.13,48.98,1044.94,2045.99,2843.87,2688.00,3045.31,599.82,618.85,22.00,0000 0000 0000 0000 000000
2016-02-21 06:47:26,0.01,1.78,0.00,19.93,23.80,27.61,15.13,48.98,1044.94,2045.99,2843.17,2688.00,3045.01,600.27,619.24,22.05,0000 0000 0000 0000 000000
2016-02-21 06:52:28,0.00,1.78,0.00,19.93,23.77,27.58,15.11,49.05,1044.94,2045.99,2842.99,2687.99,3045.00,600.00,619.00,22.10,0000 0000 0000 0000 000000
2016-02-21 06:57:29,0.02,1.78,0.00,19.94,23.77,27.59,14.98,48.78,1044.94,2045.99,2842.81,2687.73,3044.99,599.72,618.65,22.15,0000 0000 0000 0000 000000
2016-02-21 07:02:31,0.02,1.78,0.00,19.93,23.77,27.63,15.11,48.64,1044.93,2046.01,2842.73,2687.31,3044.52,600.02,619.15,22.20,0000 0000 0000 0000 000000
2016-02-21 07:07:32,0.02,1.78,0.00,19.93,23.76,27.59,15.02,48.75,1044.94,2046.01,2842.17,2687.05,3044.05,599.99,619.07,22.25,0000 0000 0000 0000 000000
2016-02-21 07:12:34,0.00,1.78,0.00,19.91,23.75,27.59,15.14,48.94,1044.92,2046.03,2841.96,2687.00,3044.01,600.49,619.60,22.30,0000 0000 0000 0000 000000
2016-02-21 07:17:35,0.01,1.78,0.00,19.89,23.75,27.56,15.08,48.77,1044.91,2046.03,2841.56,2687.00,3044.00,600.19,619.37,22.35,0000 0000 0000 0000 000000
2016-02-21 07:22:36,0.01,1.78,0.00,19.89,23.73,27.58,15.05,48.62,1044.93,2046.04,2841.05,2686.98,3043.89,599.50,618.65,22.40,0000 0000 0000 0000 000000
2016-02-21 07:27:37,0.04,1.78,0.00,19.90,23.72,27.55,15.15,49.06,1044.94,2046.07,2840.96,2686.57,3043.39,600.11,619.23,22.45,0000 0000 0000 0000 000000
2016-02-21 07:32:39,0.03,1.79,0.00,19.92,23.72,27.58,15.07,48.92,1044.94,2046.12,2840.42,2686.06,3043.02,599.91,618.84,22.50,0000 0000 0000 0000 000000
2016-02-21 07:37:40,0.02,1.79,0.00,19.92,23.72,27.55,15.16,49.06,1044.94,2046.28,2840.01,2686.00,3043.00,600.29,619.52,22.55,0000 0000 0000 0000 000000
2016-02-21 07:42:41,0.03,1.79,0.00,19.91,23.70,27.49,15.12,49.45,1044.94,2046.48,2839.52,2685.98,3042.96,600.20,619.22,22.60,0000 0000 0000 0000 000000
2016-02-21 07:47:42,0.05,1.79,0.00,19.88,23.70,27.49,15.14,49.53,1044.94,2046.66,2839.01,2685.70,3042.56,599.75,618.97,22.65,0000 0000 0000 0000 000000
2016-02-21 07:52:43,0.04,1.79,0.00,19.87,23.70,27.55,15.08,49.58,1044.94,2046.81,2838.94,2685.08,3042.04,599.79,618.99,22.70,0000 0000 0000 0000 000000
2016-02-21 07:57:45,0.02,1.79,0.00,19.87,23.69,27.52,15.19,49.65,1044.94,2046.89,2838.23,2685.00,3042.00,600.17,619.42,22.75,0000 0000 0000 0000 000000
2016-02-21 08:02:46,0.05,1.80,0.00,19.86,23.69,27.51,15.13,49.40,1044.93,2046.86,2837.89,2684.60,3041.18,600.05,619.18,22.80,0000 0000 0000 0000 000000
2016-02-21 08:07:47,0.11,1.80,0.00,19.85,23.70,27.57,15.07,49.17,1044.92,2046.91,2836.46,2683.23,3039.63,599.92,619.10,22.85,0000 0000 0000 0000 000000
2016-02-21 08:12:48,0.09,1.81,0.00,19.86,23.69,27.51,15.13,49.27,1044.93,2046.95,2834.92,2681.99,3038.36,600.18,619.40,22.90,0000 0000 0000 0000 000000
2016-02-21 08:17:49,0.06,1.81,0.00,19.86,23.69,27.55,15.11,49.13,1044.88,2046.96,2833.98,2681.07,3037.36,599.92,619.04,22.95,0000 0000 0000 0000 000000
2016-02-21 08:22:51,0.05,1.81,0.00,19.86,23.67,27.53,15.18,49.12,1044.89,2046.96,2833.13,2680.58,3036.73,600.13,619.27,23.00,0000 0000 0000 0000 000000
2016-02-21 08:27:52,0.02,1.81,0.00,19.83,23.67,27.48,15.07,48.87,1044.90,2046.94,2832.97,2680.02,3036.05,599.94,619.25,23.05,0000 0000 0000 0000 000000
2016-02-21 08:32:53,0.01,1.82,0.00,19.82,23.67,27.50,15.10,48.80,1044.94,2046.94,2832.32,2679.99,3035.99,599.72,619.09,23.10,0000 0000 0000 0000 000000
2016-02-21 08:37:55,0.02,1.82,0.00,19.81,23.65,27.51,15.11,48.58,1044.94,2046.90,2832.00,2679.68,3035.46,599.63,618.90,23.15,0000 0000 0000 0000 000000
2016-02-21 08:42:56,0.02,1.82,0.00,19.81,23.65,27.43,15.11,48.52,1044.94,2046.87,2831.59,2679.05,3035.01,599.72,619.23,23.20,0000 0000 0000 0000 000000
2016-02-21 08:47:58,0.02,1.82,0.00,19.80,23.63,27.52,15.02,48.72,1044.94,2046.95,2830.99,2678.99,3034.92,599.62,618.94,23.25,0000 0000 0000 0000 000000
2016-02-21 08:52:59,0.05,1.82,0.00,19.79,23.62,27.50,15.10,48.58,1044.94,2046.97,2830.46,2678.68,3034.35,600.02,619.33,23.30,0000 0000 0000 0000 000000
2016-02-21 08:58:00,0.02,1.82,0.00,19.76,23.60,27.49,15.05,48.77,1044.94,2046.98,2829.98,2678.05,3034.01,599.50,618.79,23.35,0000 0000 0000 0000 000000
2016-02-21 09:03:01,0.05,1.82,0.00,19.74,23.58,27.38,15.09,48.58,1044.94,2046.99,2829.33,2677.77,3033.47,599.62,619.11,23.40,0000 0000 0000 0000 000000
2016-02-21 09:08:02,0.08,1.83,0.00,19.75,23.57,27.37,15.11,48.56,1044.94,2046.99,2828.15,2676.74,3032.33,600.03,619.35,23.45,0000 0000 0000 0000 000000
2016-02-21 09:13:03,0.14,1.83,0.00,19.74,23.56,27.37,15.05,48.67,1044.94,2046.99,2826.24,2675.04,3030.55,599.57,619.01,23.50,0000 0000 0000 0000 000000
2016-02-21 09:18:04,0.13,1.84,0.00,19.73,23.55,27.38,15.15,48.86,1044.94,2046.99,2824.08,2673.24,3028.64,600.31,619.71,23.55,0000 0000 0000 0000 000000
2016-02-21 09:23:05,0.10,1.85,0.00,19.72,23.53,27.43,15.13,48.74,1044.94,2046.99,2822.36,2671.76,3027.11,599.62,619.15,23.60,0000 0000 0000 0000 000000
2016-02-21 09:28:07,0.06,1.85,0.00,19.70,23.52,27.37,15.14,48.88,1044.94,2046.99,2821.26,2670.78,3025.99,600.53,620.23,23.65,0000 0000 0000 0000 000000
2016-02-21 09:33:08,0.05,1.85,0.00,19.69,23.50,27.34,15.13,48.85,1044.94,2046.99,2820.15,2670.02,3025.08,599.98,619.54,23.70,0000 0000 0000 0000 000000
2016-02-21 09:38:09,0.06,1.86,0.00,19.66,23.50,27.32,15.07,48.61,1044.94,2046.99,2819.59,2669.29,3024.31,599.73,619.27,23.75,0000 0000 0000 0000 000000
2016-02-21 09:43:10,0.03,1.86,0.00,19.65,23.48,27.33,15.18,48.56,1044.94,2046.99,2818.82,2668.83,3023.82,599.79,619.50,23.80,0000 0000 0000 0000 000000
2016-02-21 09:48:11,0.06,1.86,0.00,19.64,23.47,27.30,15.10,48.92,1044.94,2046.99,2817.73,2667.96,3022.92,600.32,619.97,23.85,0000 0000 0000 0000 000000
2016-02-21 09:53:12,0.06,1.87,0.00,19.62,23.45,27.31,15.14,49.11,1044.93,2046.99,2816.61,2667.08,3022.00,600.23,619.95,23.90,0000 0000 0000 0000 000000
2016-02-21 09:58:13,0.05,1.87,0.00,19.59,23.43,27.35,15.17,48.78,1044.87,2046.99,2815.90,2666.32,3021.09,600.01,619.57,23.95,0000 0000 0000 0000 000000
2016-02-21 10:03:15,0.04,1.87,0.00,19.57,23.42,27.25,15.20,48.96,1044.85,2047.00,2815.03,2665.81,3020.43,600.11,619.91,24.00,0000 0000 0000 0000 000000
2016-02-21 10:08:16,0.05,1.87,0.00,19.56,23.40,27.30,15.11,48.75,1044.72,2047.00,2814.12,2665.04,3019.80,599.87,619.74,24.05,0000 0000 0000 0000 000000
2016-02-21 10:13:18,0.06,1.88,0.00,19.52,23.38,27.25,15.12,49.01,1044.63,2047.02,2813.39,2664.39,3019.04,600.15,619.89,24.10,0000 0000 0000 0000 000000
2016-02-21 10:18:19,0.04,1.88,0.00,19.52,23.37,27.21,15.09,49.08,1044.58,2047.08,2812.61,2663.96,3018.48,600.05,619.86,24.15,0000 0000 0000 0000 000000
2016-02-21 10:23:20,0.06,1.88,0.00,19.49,23.35,27.18,15.10,49.23,1044.60,2047.22,2811.80,2663.18,3017.86,600.26,619.98,24.20,0000 0000 0000 0000 000000
2016-02-21 10:28:22,0.10,1.89,0.00,19.52,23.34,27.15,15.14,49.42,1044.83,2047.57,2810.81,2662.57,3017.04,600.17,620.07,24.25,0000 0000 0000 0000 000000
2016-02-21 10:33:24,0.10,1.89,0.00,19.49,23.32,27.16,15.13,49.49,1044.76,2047.83,2809.58,2661.57,3016.02,599.90,619.76,24.30,0000 0000 0000 0000 000000
2016-02-21 10:38:25,0.09,1.90,0.00,19.47,23.31,27.15,15.11,49.35,1044.59,2047.93,2808.27,2660.51,3014.79,600.10,619.90,24.35,0000 0000 0000 0000 000000
2016-02-21 10:43:26,0.08,1.90,0.00,19.45,23.29,27.12,15.16,49.37,1044.62,2047.95,2806.90,2659.45,3013.66,600.15,619.98,24.40,0000 0000 0000 0000 000000
2016-02-21 10:48:28,0.08,1.91,0.00,19.44,23.29,27.20,15.15,49.16,1044.58,2047.95,2805.68,2658.37,3012.48,599.98,619.87,24.45,0000 0000 0000 0000 000000
2016-02-21 10:53:29,0.07,1.91,0.00,19.45,23.28,27.17,15.20,49.20,1044.54,2047.98,2804.73,2657.33,3011.21,600.26,620.06,24.50,0000 0000 0000 0000 000000
2016-02-21 10:58:30,0.03,1.91,0.00,19.42,23.27,27.11,15.14,48.95,1044.52,2047.96,2803.99,2656.90,3010.64,600.05,619.89,24.55,0000 0000 0000 0000 000000
2016-02-21 11:03:32,0.06,1.91,0.00,19.42,23.27,27.13,15.07,48.92,1044.48,2047.97,2803.05,2656.08,3009.73,599.76,619.68,24.60,0000 0000 0000 0000 000000
2016-02-21 11:08:33,0.07,1.92,0.00,19.41,23.25,27.13,15.16,49.21,1044.48,2047.98,2801.78,2655.27,3008.96,600.13,620.04,24.65,0000 0000 0000 0000 000000
2016-02-21 11:13:34,0.06,1.92,0.00,19.38,23.23,27.11,15.06,49.34,1044.47,2047.99,2800.90,2654.36,3008.09,599.59,619.46,24.70,0000 0000 0000 0000 000000
2016-02-21 11:18:36,0.03,1.92,0.00,19.36,23.22,27.11,15.13,49.27,1044.49,2047.99,2800.06,2653.99,3007.59,600.00,619.76,24.76,0000 0000 0000 0000 000000
2016-02-21 11:23:37,0.05,1.93,0.00,19.33,23.20,27.11,15.16,49.13,1044.47,2047.99,2799.53,2653.34,3007.01,600.16,620.27,24.81,0000 0000 0000 0000 000000
2016-02-21 11:28:38,0.01,1.93,0.00,19.32,23.19,27.04,15.17,49.17,1044.47,2048.00,2798.98,2653.00,3006.84,600.15,620.25,24.86,0000 0000 0000 0000 000000
2016-02-21 11:33:39,0.04,1.93,0.00,19.32,23.17,27.00,15.13,48.92,1044.46,2048.02,2798.25,2652.87,3006.08,599.96,619.87,24.91,0000 0000 0000 0000 000000
2016-02-21 11:38:40,0.03,1.93,0.00,19.31,23.16,26.99,15.12,49.00,1044.45,2048.03,2797.93,2652.19,3006.00,600.09,620.05,24.96,0000 0000 0000 0000 000000
2016-02-21 11:43:41,0.03,1.93,0.00,19.26,23.14,26.95,15.09,49.20,1044.45,2048.05,2797.27,2652.00,3005.58,599.40,619.44,25.01,0000 0000 0000 0000 000000
2016-02-21 11:48:43,0.05,1.93,0.00,19.23,23.12,26.97,15.15,49.52,1044.45,2048.05,2796.58,2651.45,3005.02,600.03,620.30,25.06,0000 0000 0000 0000 000000
2016-02-21 11:53:44,0.03,1.94,0.00,19.20,23.10,26.95,15.17,49.41,1044.45,2048.13,2796.01,2651.01,3004.58,599.68,620.01,25.11,0000 0000 0000 0000 000000
2016-02-21 11:58:45,0.06,1.94,0.00,19.21,23.09,26.95,15.22,49.25,1044.44,2048.46,2795.65,2650.92,3004.01,600.03,620.31,25.16,0000 0000 0000 0000 000000
2016-02-21 12:03:46,0.07,1.94,0.00,19.20,23.08,26.91,15.13,49.15,1044.42,2048.75,2794.98,2650.13,3003.78,599.82,620.18,25.21,0000 0000 0000 0000 000000
2016-02-21 12:08:47,0.04,1.95,0.00,19.16,23.07,26.96,15.13,49.27,1044.42,2048.92,2794.21,2649.78,3003.04,600.16,620.55,25.26,0000 0000 0000 0000 000000
2016-02-21 12:13:49,0.05,1.95,0.00,19.17,23.04,26.90,15.13,49.62,1044.44,2048.91,2793.31,2649.04,3002.47,600.00,620.31,25.31,0000 0000 0000 0000 000000
2016-02-21 12:18:50,0.04,1.95,0.00,19.14,23.03,26.92,15.07,49.62,1044.44,2048.96,2792.65,2648.76,3002.00,599.58,620.20,25.36,0000 0000 0000 0000 000000
2016-02-21 12:23:51,0.04,1.95,0.00,19.13,23.02,26.86,15.28,49.63,1044.41,2048.98,2792.03,2648.05,3001.36,600.25,620.67,25.41,0000 0000 0000 0000 000000
2016-02-21 12:28:53,0.02,1.95,0.00,19.15,23.00,26.90,15.10,49.56,1044.41,2048.99,2791.41,2647.91,3001.00,600.09,620.50,25.46,0000 0000 0000 0000 000000
2016-02-21 12:33:54,0.04,1.96,0.00,19.14,22.99,26.86,15.11,49.58,1044.40,2048.99,2790.96,2647.13,3000.50,600.00,620.27,25.51,0000 0000 0000 0000 000000
2016-02-21 12:38:55,0.02,1.96,0.00,19.11,22.98,26.83,15.08,49.58,1044.33,2048.99,2790.19,2646.99,3000.01,599.83,620.25,25.56,0000 0000 0000 0000 000000
2016-02-21 12:43:56,0.04,1.96,0.00,19.10,22.97,26.82,15.17,49.62,1044.24,2048.99,2789.94,2646.38,2999.51,600.12,620.71,25.61,0000 0000 0000 0000 000000
2016-02-21 12:48:58,0.03,1.96,0.00,19.08,22.97,26.80,15.16,49.56,1044.36,2048.99,2789.17,2645.98,2998.92,599.95,620.39,25.66,0000 0000 0000 0000 000000
2016-02-21 12:53:59,0.05,1.96,0.00,19.05,22.97,26.85,15.16,49.51,1044.26,2048.99,2788.67,2645.31,2998.10,600.01,620.64,25.71,0000 0000 0000 0000 000000